{"data":{"norad_id":68206,"intl_designator":"2026-052J","name":"2026-052J","alt_names":[],"object_type":"PAYLOAD","status":"ACTIVE","operator":null,"country":"PRC","launch_date":"2026-03-16","launch_site_code":"JSC","launch_vehicle":null,"mission":null,"orbit_class":"UNKNOWN","rcs_meters":null,"size_class":null,"mass_kg":null,"dimensions":null,"purposes":[],"wikipedia_slug":null,"has_3d_model":false,"image_url":null,"decayed_at":null,"tle_current":{"epoch":"2026-09-18T10:25:52.762080Z","epoch_age_seconds":253892,"freshness":"STALE","line1":"1 68206U 26052J   26261.43463845  .00081780  27111-5  92667-3 0  9995","line2":"2 68206  97.3175 322.9822 0437197 116.0968 248.5926 14.95315951 27576","mean_motion":14.95315951,"eccentricity":0.0437197,"inclination_deg":97.3175,"raan_deg":322.9822,"arg_perigee_deg":116.0968,"mean_anomaly_deg":248.5926,"bstar":0.00092667,"rev_number":2757,"period_min":96.300718188487,"perigee_km":277.1237108984,"apogee_km":885.66077205561,"semimajor_km":6959.529241477,"source":"CELESTRAK","updated_at":"2026-09-20T09:00:24.069354Z"}}}